CW7283 Weather Reports


time (UTC)temp
C
wind
direction
speed
KPH
gust
KPH
rain 1hr
cm
rain 24hr
cm
rain mn
cm
humidity
%
barometer
mb
20260906221827 29 294 0.0 3.2 0.00 0.00 0.00 39 1010.7
20260906220341 30 244 0.0 3.2 0.00 0.00 0.00 39 1010.7
20260906214832 30 246 0.0 3.2 0.00 0.00 0.00 38 1011.1
20260906213331 30 263 0.0 3.2 0.00 0.00 0.00 40 1011.2
20260906211834 29 155 0.0 3.2 0.00 0.00 0.00 39 1011.6
20260906210403 29 222 0.0 3.2 0.00 0.00 0.00 39 1011.8
20260906204849 28 146 0.0 3.2 0.00 0.00 0.00 40 1012.1
20260906203328 28 146 0.0 3.2 0.00 0.00 0.00 41 1012.3
20260906201841 28 129 0.0 3.2 0.00 0.00 0.00 42 1012.4
20260906200339 27 49 0.0 3.2 0.00 0.00 0.00 45 1012.8
20260906194846 26 342 0.0 1.6 0.00 0.00 0.00 47 1012.9
20260906193406 25 237 0.0 3.2 0.00 0.00 0.00 50 1013.0
20260906191826 26 219 0.0 3.2 0.00 0.00 0.00 51 1013.5
20260906190400 25 165 0.0 3.2 0.00 0.00 0.00 53 1013.7
20260906184854 25 302 0.0 6.4 0.00 0.00 0.00 53 1013.8
20260906183340 25 136 0.0 4.8 0.00 0.00 0.00 52 1014.2
20260906181841 24 319 0.0 3.2 0.00 0.00 0.00 53 1014.3
20260906180328 23 222 0.0 4.8 0.00 0.00 0.00 53 1014.6
20260906174825 23 151 1.6 3.2 0.00 0.00 0.00 55 1014.8
20260906173348 23 288 3.2 4.8 0.00 0.00 0.00 54 1014.9
20260906171830 22 199 0.0 4.8 0.00 0.00 0.00 58 1015.1
20260906170333 22 221 1.6 4.8 0.00 0.00 0.00 58 1015.3
20260906164832 21 227 1.6 3.2 0.00 0.00 0.00 59 1015.4
20260906163349 21 355 0.0 4.8 0.00 0.00 0.00 62 1015.6
20260906161836 21 189 0.0 3.2 0.00 0.00 0.00 59 1015.8
20260906160340 20 27 0.0 3.2 0.00 0.00 0.00 59 1015.9
20260906154858 19 306 0.0 3.2 0.00 0.00 0.00 60 1015.9
20260906153337 18 321 0.0 3.2 0.00 0.00 0.00 62 1016.0
20260906151839 16 148 0.0 1.6 0.00 0.00 0.00 67 1016.0
20260906150350 15 157 0.0 1.6 0.00 0.00 0.00 69 1016.0
20260906144834 14 151 0.0 0.0 0.00 0.00 0.00 73 1016.2
20260906143356 13 132 0.0 0.0 0.00 0.00 0.00 73 1016.2
20260906141838 12 134 0.0 3.2 0.00 0.00 0.00 74 1016.2
20260906140326 11 149 0.0 0.0 0.00 0.00 0.00 77 1016.1
20260906134853 11 149 0.0 0.0 0.00 0.00 0.00 77 1016.1
20260906133408 10 149 0.0 0.0 0.00 0.00 0.00 77 1016.2
20260906131828 10 137 0.0 3.2 0.00 0.00 0.00 78 1016.3
20260906130338 10 164 0.0 0.0 0.00 0.00 0.00 80 1016.4
20260906124851 9 209 0.0 0.0 0.00 0.00 0.00 81 1016.2
20260906123339 9 242 0.0 0.0 0.00 0.00 0.00 81 1016.0
20260906121825 9 242 0.0 0.0 0.00 0.00 0.00 81 1016.0
20260906120325 9 279 0.0 0.0 0.00 0.00 0.00 80 1015.9
20260906114908 9 279 0.0 0.0 0.00 0.00 0.00 81 1015.6
20260906113355 10 279 0.0 0.0 0.00 0.00 0.00 79 1015.5
20260906111851 10 279 0.0 0.0 0.00 0.00 0.00 79 1015.3
20260906110341 10 279 0.0 0.0 0.00 0.00 0.00 78 1015.4
20260906104826 10 279 0.0 0.0 0.00 0.00 0.00 79 1015.3
20260906103353 10 279 0.0 0.0 0.00 0.00 0.00 77 1015.3
20260906101833 11 279 0.0 0.0 0.00 0.00 0.00 76 1015.3
20260906100325 11 279 0.0 0.0 0.00 0.00 0.00 75 1015.3
20260906094835 11 279 0.0 0.0 0.00 0.00 0.00 75 1015.3
20260906093338 11 279 0.0 0.0 0.00 0.00 0.00 74 1015.3
20260906091840 11 259 0.0 0.0 0.00 0.00 0.00 74 1015.3
20260906090342 12 259 0.0 0.0 0.00 0.00 0.00 73 1015.3
20260906084847 12 260 0.0 0.0 0.00 0.00 0.00 73 1015.4
20260906083339 12 242 0.0 0.0 0.00 0.00 0.00 72 1015.5
20260906081902 12 242 0.0 0.0 0.00 0.00 0.00 71 1015.7
20260906080349 12 242 0.0 0.0 0.00 0.00 0.00 70 1015.9
20260906074849 12 242 0.0 0.0 0.00 0.00 0.00 68 1015.9
20260906073401 13 242 0.0 0.0 0.00 0.00 0.00 67 1015.9
20260906071826 13 242 0.0 0.0 0.00 0.00 0.00 67 1016.0
20260906070400 13 242 0.0 0.0 0.00 0.00 0.00 66 1016.1
20260906064835 13 242 0.0 0.0 0.00 0.00 0.00 66 1016.2
20260906063338 13 244 0.0 0.0 0.00 0.00 0.00 66 1016.4
20260906061837 14 250 0.0 0.0 0.00 0.00 0.00 67 1016.5
20260906060350 14 251 0.0 0.0 0.00 0.00 0.00 64 1016.5
20260906054905 15 253 0.0 0.0 0.00 0.00 0.00 62 1016.5
20260906053328 15 193 0.0 0.0 0.00 0.00 0.00 61 1016.6
20260906051840 15 218 0.0 0.0 0.00 0.00 0.00 60 1016.6
20260906050332 16 236 0.0 0.0 0.00 0.00 0.00 59 1016.5
20260906044842 16 234 0.0 0.0 0.00 0.00 0.00 60 1016.7
20260906043335 16 238 0.0 0.0 0.00 0.00 0.00 61 1016.8
20260906041842 17 238 0.0 0.0 0.00 0.00 0.00 59 1016.7
20260906040346 17 242 0.0 0.0 0.00 0.00 0.00 59 1016.5
20260906034835 17 221 0.0 0.0 0.00 0.00 0.00 57 1016.5
20260906033335 17 215 0.0 0.0 0.00 0.00 0.00 55 1016.5
20260906031859 18 216 0.0 0.0 0.00 0.00 0.00 55 1016.2
20260906030351 18 273 0.0 0.0 0.00 0.00 0.00 53 1016.3
20260906024834 20 295 0.0 1.6 0.00 0.00 0.00 50 1015.9
20260906023353 21 242 0.0 0.0 0.00 0.00 0.00 46 1015.8
20260906021858 21 269 0.0 0.0 0.00 0.00 0.00 46 1015.6
20260906020345 22 287 0.0 0.0 0.00 0.00 0.00 44 1015.5
20260906014841 22 287 0.0 0.0 0.00 0.00 0.00 43 1015.4
20260906013349 23 287 0.0 0.0 0.00 0.00 0.00 42 1015.3
20260906011839 23 287 0.0 0.0 0.00 0.00 0.00 42 1015.3
20260906010337 24 290 0.0 0.0 0.00 0.00 0.00 40 1015.3
20260906004910 25 290 0.0 0.0 0.00 0.00 0.00 39 1015.3
20260906003345 26 290 0.0 0.0 0.00 0.00 0.00 36 1015.3
20260906001900 26 286 0.0 0.0 0.00 0.00 0.00 35 1015.3
20260906000333 26 325 0.0 0.0 0.00 0.00 0.00 35 1015.3
20260905234829 26 338 0.0 3.2 0.00 0.00 0.00 35 1015.3
20260905233337 26 275 0.0 1.6 0.00 0.00 0.00 35 1015.4
20260905231846 28 309 0.0 3.2 0.00 0.00 0.00 33 1015.3
20260905230330 28 153 0.0 3.2 0.00 0.00 0.00 32 1015.4
20260905224823 28 26 0.0 1.6 0.00 0.00 0.00 33 1015.4
20260905223347 28 198 0.0 3.2 0.00 0.00 0.00 32 1015.6